Wetterdaten: Mittwoch, 08.05.2013
Datum Zeit Temperatur Luftfeuchte Luftdruck Regen Wind Richtung Richtung Taupunkt Windchill Windben
08.05.2013 00:00 10,2 C 86 % 1019,9 hPa 0,0 l/m 1,3 km/h (1 Bft) S-SO 157 8,0 C 10,5 C 0,0 km/h (0 Bft)
08.05.2013 00:05 10,2 C 86 % 1020,1 hPa 0,0 l/m 0,8 km/h (0 Bft) W-SW 247 8,0 C 10,5 C 0,0 km/h (0 Bft)
08.05.2013 00:10 10,1 C 86 % 1020,1 hPa 0,0 l/m 0,2 km/h (0 Bft) S-SW 202 7,9 C 10,4 C 0,0 km/h (0 Bft)
08.05.2013 00:15 10,1 C 86 % 1020,1 hPa 0,0 l/m 0,3 km/h (0 Bft) O 90 7,9 C 10,3 C 0,0 km/h (0 Bft)
08.05.2013 00:20 10,1 C 86 % 1020,1 hPa 0,0 l/m 0,5 km/h (0 Bft) O-NO 67 7,9 C 10,2 C 0,0 km/h (0 Bft)
08.05.2013 00:25 10,1 C 86 % 1018,0 hPa 0,0 l/m 0,6 km/h (0 Bft) S-SW 202 7,9 C 10,2 C 2,9 km/h (1 Bft)
08.05.2013 00:30 10,1 C 86 % 1018,0 hPa 0,0 l/m 1,1 km/h (1 Bft) O 90 7,9 C 10,2 C 2,7 km/h (1 Bft)
08.05.2013 00:35 10,1 C 86 % 1018,0 hPa 0,0 l/m 1,3 km/h (1 Bft) SO 135 7,9 C 10,2 C 4,3 km/h (1 Bft)
08.05.2013 00:40 10,1 C 86 % 1018,0 hPa 0,0 l/m 1,3 km/h (1 Bft) S-SW 202 7,9 C 10,2 C 2,9 km/h (1 Bft)
08.05.2013 00:45 10,1 C 85 % 1017,8 hPa 0,0 l/m 1,6 km/h (1 Bft) O-SO 112 7,7 C 10,2 C 4,7 km/h (1 Bft)
08.05.2013 00:50 10,1 C 85 % 1017,8 hPa 0,0 l/m 1,0 km/h (0 Bft) O-SO 112 7,7 C 10,2 C 1,8 km/h (1 Bft)
08.05.2013 00:55 10,0 C 85 % 1017,8 hPa 0,0 l/m 1,1 km/h (1 Bft) O 90 7,6 C 10,2 C 2,4 km/h (1 Bft)
08.05.2013 01:00 10,0 C 84 % 1017,8 hPa 0,0 l/m 1,9 km/h (1 Bft) N 360 7,4 C 10,2 C 2,7 km/h (1 Bft)
08.05.2013 01:05 10,0 C 84 % 1017,6 hPa 0,0 l/m 2,9 km/h (1 Bft) S 180 7,4 C 10,2 C 8,7 km/h (2 Bft)
08.05.2013 01:10 10,0 C 84 % 1017,6 hPa 0,0 l/m 3,1 km/h (1 Bft) SO 135 7,4 C 10,1 C 2,4 km/h (1 Bft)
08.05.2013 01:15 9,9 C 84 % 1017,6 hPa 0,0 l/m 1,9 km/h (1 Bft) W 270 7,3 C 10,0 C 8,7 km/h (2 Bft)
08.05.2013 01:20 9,9 C 84 % 1017,6 hPa 0,0 l/m 0,5 km/h (0 Bft) SO 135 7,3 C 10,0 C 0,0 km/h (0 Bft)
08.05.2013 01:25 9,9 C 84 % 1017,8 hPa 0,0 l/m 1,0 km/h (0 Bft) S-SW 202 7,3 C 10,0 C 3,4 km/h (1 Bft)
08.05.2013 01:30 9,8 C 85 % 1017,8 hPa 0,0 l/m 1,1 km/h (1 Bft) O-NO 67 7,4 C 10,0 C 2,6 km/h (1 Bft)
08.05.2013 01:35 9,8 C 85 % 1017,8 hPa 0,0 l/m 0,8 km/h (0 Bft) N-NO 22 7,4 C 10,0 C 1,9 km/h (1 Bft)
08.05.2013 01:40 9,7 C 85 % 1017,8 hPa 0,0 l/m 0,6 km/h (0 Bft) SO 135 7,3 C 9,9 C 2,1 km/h (1 Bft)
08.05.2013 01:45 9,8 C 85 % 1017,2 hPa 0,0 l/m 1,1 km/h (1 Bft) O-SO 112 7,4 C 10,0 C 0,0 km/h (0 Bft)
08.05.2013 01:50 9,8 C 84 % 1017,2 hPa 0,0 l/m 1,9 km/h (1 Bft) W-NW 292 7,2 C 10,0 C 0,0 km/h (0 Bft)
08.05.2013 01:55 9,7 C 84 % 1017,2 hPa 0,0 l/m 1,0 km/h (0 Bft) S 180 7,1 C 10,0 C 0,0 km/h (0 Bft)
08.05.2013 02:00 9,7 C 84 % 1017,2 hPa 0,0 l/m 0,3 km/h (0 Bft) NO 45 7,1 C 10,0 C 1,6 km/h (1 Bft)
08.05.2013 02:05 9,7 C 84 % 1017,2 hPa 0,0 l/m 0,8 km/h (0 Bft) NW 315 7,1 C 10,0 C 2,7 km/h (1 Bft)
08.05.2013 02:10 9,6 C 84 % 1017,2 hPa 0,0 l/m 0,6 km/h (0 Bft) O-SO 112 7,0 C 10,0 C 0,0 km/h (0 Bft)
08.05.2013 02:15 9,6 C 84 % 1017,2 hPa 0,0 l/m 0,5 km/h (0 Bft) N 360 7,0 C 10,0 C 3,4 km/h (1 Bft)
08.05.2013 02:20 9,7 C 84 % 1017,2 hPa 0,0 l/m 0,8 km/h (0 Bft) W 270 7,1 C 10,0 C 3,2 km/h (1 Bft)
08.05.2013 02:25 9,6 C 84 % 1017,4 hPa 0,0 l/m 1,0 km/h (0 Bft) W-SW 247 7,0 C 10,0 C 0,0 km/h (0 Bft)
08.05.2013 02:30 9,5 C 84 % 1017,4 hPa 0,0 l/m 0,8 km/h (0 Bft) S 180 6,9 C 9,8 C 0,0 km/h (0 Bft)
08.05.2013 02:35 9,3 C 83 % 1017,4 hPa 0,0 l/m 0,6 km/h (0 Bft) S-SW 202 6,6 C 9,7 C 3,1 km/h (1 Bft)
08.05.2013 02:40 9,2 C 83 % 1017,4 hPa 0,0 l/m 0,8 km/h (0 Bft) W-NW 292 6,5 C 9,6 C 0,0 km/h (0 Bft)
08.05.2013 02:45 9,1 C 84 % 1017,1 hPa 0,0 l/m 0,8 km/h (0 Bft) O-SO 112 6,5 C 9,5 C 0,0 km/h (0 Bft)
08.05.2013 02:50 8,9 C 84 % 1017,1 hPa 0,0 l/m 1,1 km/h (1 Bft) N-NW 337 6,3 C 9,3 C 3,1 km/h (1 Bft)
08.05.2013 02:55 8,9 C 84 % 1017,1 hPa 0,0 l/m 1,3 km/h (1 Bft) W 270 6,3 C 9,3 C 2,1 km/h (1 Bft)
08.05.2013 03:00 8,8 C 84 % 1017,1 hPa 0,0 l/m 1,1 km/h (1 Bft) W-SW 247 6,2 C 9,1 C 2,1 km/h (1 Bft)
08.05.2013 03:05 8,7 C 84 % 1017,2 hPa 0,0 l/m 0,8 km/h (0 Bft) S 180 6,2 C 9,1 C 0,0 km/h (0 Bft)
08.05.2013 03:10 8,6 C 84 % 1017,2 hPa 0,0 l/m 0,8 km/h (0 Bft) S 180 6,1 C 8,9 C 0,0 km/h (0 Bft)
08.05.2013 03:15 8,5 C 84 % 1017,2 hPa 0,0 l/m 0,8 km/h (0 Bft) S 180 6,0 C 8,7 C 0,0 km/h (0 Bft)
08.05.2013 03:20 8,2 C 84 % 1017,2 hPa 0,0 l/m 0,5 km/h (0 Bft) S 180 5,7 C 8,5 C 0,0 km/h (0 Bft)
08.05.2013 03:25 8,3 C 85 % 1016,6 hPa 0,0 l/m 0,3 km/h (0 Bft) O-NO 67 5,9 C 8,4 C 0,0 km/h (0 Bft)
08.05.2013 03:30 8,2 C 85 % 1016,6 hPa 0,0 l/m 0,0 km/h (0 Bft) S-SW 202 5,8 C 8,1 C 1,8 km/h (1 Bft)
08.05.2013 03:35 8,1 C 85 % 1016,6 hPa 0,0 l/m 0,2 km/h (0 Bft) W-SW 247 5,7 C 8,1 C 0,0 km/h (0 Bft)
08.05.2013 03:40 8,5 C 85 % 1016,6 hPa 0,0 l/m 0,2 km/h (0 Bft) S-SO 157 6,1 C 8,1 C 0,0 km/h (0 Bft)
08.05.2013 03:45 8,7 C 85 % 1017,0 hPa 0,0 l/m 0,2 km/h (0 Bft) O-SO 112 6,3 C 8,1 C 2,6 km/h (1 Bft)
08.05.2013 03:50 8,5 C 85 % 1017,0 hPa 0,0 l/m 0,2 km/h (0 Bft) S 180 6,1 C 8,1 C 0,0 km/h (0 Bft)
08.05.2013 03:55 8,5 C 85 % 1017,0 hPa 0,0 l/m 0,2 km/h (0 Bft) N-NO 22 6,1 C 8,1 C 0,0 km/h (0 Bft)
08.05.2013 04:00 8,4 C 85 % 1017,0 hPa 0,0 l/m 0,2 km/h (0 Bft) N-NO 22 6,0 C 8,1 C 0,0 km/h (0 Bft)
08.05.2013 04:05 8,2 C 85 % 1017,1 hPa 0,0 l/m 0,2 km/h (0 Bft) W-SW 247 5,8 C 8,1 C 0,0 km/h (0 Bft)
08.05.2013 04:10 8,4 C 85 % 1017,1 hPa 0,0 l/m 0,0 km/h (0 Bft) SW 225 6,0 C 8,1 C 0,0 km/h (0 Bft)
08.05.2013 04:15 8,3 C 85 % 1017,1 hPa 0,0 l/m 0,2 km/h (0 Bft) O-SO 112 5,9 C 8,1 C 0,0 km/h (0 Bft)
08.05.2013 04:20 8,5 C 85 % 1017,1 hPa 0,0 l/m 0,2 km/h (0 Bft) N-NO 22 6,1 C 8,1 C 0,0 km/h (0 Bft)
08.05.2013 04:25 8,5 C 85 % 1017,0 hPa 0,0 l/m 0,0 km/h (0 Bft) O-NO 67 6,1 C 8,1 C 0,0 km/h (0 Bft)
08.05.2013 04:30 8,1 C 84 % 1017,0 hPa 0,0 l/m 0,0 km/h (0 Bft) W-NW 292 5,6 C 8,0 C 0,0 km/h (0 Bft)
08.05.2013 04:35 8,0 C 84 % 1017,0 hPa 0,0 l/m 0,3 km/h (0 Bft) O-NO 67 5,5 C 7,9 C 0,0 km/h (0 Bft)
08.05.2013 04:40 7,9 C 85 % 1017,0 hPa 0,0 l/m 0,3 km/h (0 Bft) S-SW 202 5,5 C 7,8 C 0,0 km/h (0 Bft)
08.05.2013 04:45 7,9 C 85 % 1017,1 hPa 0,0 l/m 0,0 km/h (0 Bft) W-SW 247 5,5 C 7,6 C 0,0 km/h (0 Bft)
08.05.2013 04:50 7,7 C 85 % 1017,1 hPa 0,0 l/m 0,0 km/h (0 Bft) O 90 5,3 C 7,5 C 0,0 km/h (0 Bft)
08.05.2013 04:55 7,5 C 85 % 1017,1 hPa 0,0 l/m 0,0 km/h (0 Bft) W-SW 247 5,1 C 7,2 C 0,0 km/h (0 Bft)
08.05.2013 05:00 7,3 C 85 % 1017,1 hPa 0,0 l/m 0,0 km/h (0 Bft) O-NO 67 4,9 C 6,9 C 0,0 km/h (0 Bft)
08.05.2013 05:05 7,1 C 85 % 1017,1 hPa 0,0 l/m 0,0 km/h (0 Bft) O-NO 67 4,8 C 6,8 C 0,0 km/h (0 Bft)
08.05.2013 05:10 6,8 C 86 % 1017,1 hPa 0,0 l/m 0,2 km/h (0 Bft) W-SW 247 4,6 C 6,7 C 0,0 km/h (0 Bft)
08.05.2013 05:15 6,7 C 86 % 1017,1 hPa 0,0 l/m 0,2 km/h (0 Bft) W 270 4,5 C 6,6 C 0,0 km/h (0 Bft)
08.05.2013 05:20 6,7 C 86 % 1017,1 hPa 0,0 l/m 0,2 km/h (0 Bft) O 90 4,5 C 6,5 C 1,9 km/h (1 Bft)
08.05.2013 05:25 6,7 C 87 % 1017,1 hPa 0,0 l/m 0,2 km/h (0 Bft) NO 45 4,7 C 6,6 C 0,0 km/h (0 Bft)
08.05.2013 05:30 6,7 C 87 % 1017,1 hPa 0,0 l/m 0,5 km/h (0 Bft) O 90 4,7 C 6,6 C 0,0 km/h (0 Bft)
08.05.2013 05:35 6,6 C 87 % 1017,1 hPa 0,0 l/m 0,5 km/h (0 Bft) O 90 4,6 C 6,6 C 0,0 km/h (0 Bft)
08.05.2013 05:40 6,7 C 88 % 1017,1 hPa 0,0 l/m 0,2 km/h (0 Bft) NO 45 4,9 C 6,4 C 0,0 km/h (0 Bft)
08.05.2013 05:45 6,5 C 88 % 1017,1 hPa 0,0 l/m 0,0 km/h (0 Bft) W-NW 292 4,7 C 6,3 C 0,0 km/h (0 Bft)
08.05.2013 05:50 6,5 C 88 % 1017,1 hPa 0,0 l/m 0,0 km/h (0 Bft) S-SW 202 4,7 C 6,2 C 0,0 km/h (0 Bft)
08.05.2013 05:55 6,6 C 88 % 1017,1 hPa 0,0 l/m 0,0 km/h (0 Bft) N-NW 337 4,8 C 6,1 C 0,0 km/h (0 Bft)
08.05.2013 06:00 6,2 C 88 % 1017,1 hPa 0,0 l/m 0,0 km/h (0 Bft) N-NO 22 4,4 C 6,0 C 0,0 km/h (0 Bft)
08.05.2013 06:05 6,2 C 88 % 1017,2 hPa 0,0 l/m 0,0 km/h (0 Bft) N-NW 337 4,4 C 5,9 C 0,0 km/h (0 Bft)
08.05.2013 06:10 6,3 C 89 % 1017,2 hPa 0,0 l/m 0,0 km/h (0 Bft) N-NW 337 4,6 C 5,9 C 0,0 km/h (0 Bft)
08.05.2013 06:15 6,3 C 89 % 1017,2 hPa 0,0 l/m 0,0 km/h (0 Bft) NO 45 4,6 C 5,9 C 0,0 km/h (0 Bft)
08.05.2013 06:20 6,3 C 89 % 1017,2 hPa 0,0 l/m 0,0 km/h (0 Bft) NO 45 4,6 C 6,0 C 0,0 km/h (0 Bft)
08.05.2013 06:25 6,3 C 89 % 1017,6 hPa 0,0 l/m 0,2 km/h (0 Bft) O 90 4,6 C 6,0 C 0,0 km/h (0 Bft)
08.05.2013 06:30 6,5 C 89 % 1017,6 hPa 0,0 l/m 0,2 km/h (0 Bft) S-SO 157 4,8 C 6,2 C 0,0 km/h (0 Bft)
08.05.2013 06:35 6,8 C 89 % 1017,6 hPa 0,0 l/m 0,2 km/h (0 Bft) SO 135 5,1 C 6,5 C 0,0 km/h (0 Bft)
08.05.2013 06:40 7,3 C 89 % 1017,6 hPa 0,0 l/m 0,3 km/h (0 Bft) NO 45 5,6 C 6,9 C 3,4 km/h (1 Bft)
08.05.2013 06:45 8,0 C 88 % 1018,1 hPa 0,0 l/m 0,5 km/h (0 Bft) W-NW 292 6,1 C 7,5 C 0,0 km/h (0 Bft)
08.05.2013 06:50 8,9 C 88 % 1018,1 hPa 0,7 l/m 0,6 km/h (0 Bft) SW 225 7,0 C 8,8 C 0,0 km/h (0 Bft)
08.05.2013 06:55 10,1 C 86 % 1018,1 hPa 0,0 l/m 0,3 km/h (0 Bft) NO 45 7,9 C 9,6 C 0,0 km/h (0 Bft)
08.05.2013 07:00 11,1 C 83 % 1018,1 hPa 0,0 l/m 0,0 km/h (0 Bft) O 90 8,3 C 10,9 C 0,0 km/h (0 Bft)
08.05.2013 07:05 12,3 C 78 % 1018,0 hPa 0,0 l/m 0,0 km/h (0 Bft) S 180 8,6 C 11,8 C 0,0 km/h (0 Bft)
08.05.2013 07:10 13,4 C 74 % 1018,0 hPa 0,0 l/m 0,0 km/h (0 Bft) O-NO 67 8,9 C 13,5 C 0,0 km/h (0 Bft)
08.05.2013 07:15 12,9 C 72 % 1018,0 hPa 0,0 l/m 0,0 km/h (0 Bft) O 90 8,0 C 14,4 C 0,0 km/h (0 Bft)
08.05.2013 07:20 10,8 C 73 % 1018,0 hPa 0,0 l/m 0,2 km/h (0 Bft) N 360 6,2 C 15,2 C 0,0 km/h (0 Bft)
08.05.2013 07:25 10,5 C 75 % 1018,1 hPa 0,0 l/m 0,5 km/h (0 Bft) NO 45 6,3 C 15,5 C 1,8 km/h (1 Bft)
08.05.2013 07:30 11,9 C 76 % 1018,1 hPa 0,0 l/m 0,5 km/h (0 Bft) O-SO 112 7,8 C 16,0 C 0,0 km/h (0 Bft)
08.05.2013 07:35 14,4 C 70 % 1018,1 hPa 0,0 l/m 0,6 km/h (0 Bft) NO 45 9,0 C 16,4 C 0,0 km/h (0 Bft)
08.05.2013 07:40 16,5 C 65 % 1018,1 hPa 0,0 l/m 0,3 km/h (0 Bft) NO 45 9,9 C 17,3 C 0,0 km/h (0 Bft)
08.05.2013 07:45 16,3 C 60 % 1018,1 hPa 0,0 l/m 0,5 km/h (0 Bft) NO 45 8,5 C 17,6 C 0,0 km/h (0 Bft)
08.05.2013 07:50 16,6 C 59 % 1018,1 hPa 0,0 l/m 1,3 km/h (1 Bft) N-NO 22 8,6 C 17,6 C 0,0 km/h (0 Bft)
08.05.2013 07:55 17,1 C 59 % 1018,1 hPa 0,0 l/m 1,1 km/h (1 Bft) N-NO 22 9,0 C 17,8 C 0,0 km/h (0 Bft)
08.05.2013 08:00 18,3 C 58 % 1018,1 hPa 0,0 l/m 0,3 km/h (0 Bft) N 360 9,9 C 18,8 C 0,0 km/h (0 Bft)
08.05.2013 08:05 18,0 C 57 % 1018,6 hPa 0,0 l/m 0,2 km/h (0 Bft) O 90 9,4 C 19,2 C 0,0 km/h (0 Bft)
08.05.2013 08:10 18,4 C 56 % 1018,6 hPa 0,0 l/m 0,3 km/h (0 Bft) NO 45 9,5 C 19,9 C 0,0 km/h (0 Bft)
08.05.2013 08:15 18,4 C 55 % 1018,6 hPa 0,0 l/m 0,5 km/h (0 Bft) O 90 9,2 C 20,0 C 2,3 km/h (1 Bft)
08.05.2013 08:20 18,8 C 55 % 1018,6 hPa 0,0 l/m 0,5 km/h (0 Bft) O 90 9,6 C 20,5 C 0,0 km/h (0 Bft)
08.05.2013 08:25 18,9 C 53 % 1018,3 hPa 0,0 l/m 0,3 km/h (0 Bft) O 90 9,1 C 20,9 C 0,0 km/h (0 Bft)
08.05.2013 08:30 19,4 C 53 % 1018,3 hPa 0,0 l/m 0,0 km/h (0 Bft) NO 45 9,6 C 21,5 C 0,0 km/h (0 Bft)
08.05.2013 08:35 19,9 C 51 % 1018,3 hPa 0,0 l/m 0,0 km/h (0 Bft) N-NO 22 9,5 C 21,7 C 0,0 km/h (0 Bft)
08.05.2013 08:40 20,9 C 51 % 1018,3 hPa 0,0 l/m 0,0 km/h (0 Bft) S 180 10,4 C 22,3 C 1,8 km/h (1 Bft)
08.05.2013 08:45 20,9 C 50 % 1018,6 hPa 0,0 l/m 0,0 km/h (0 Bft) SW 225 10,1 C 22,3 C 0,0 km/h (0 Bft)
08.05.2013 08:50 21,6 C 48 % 1018,6 hPa 0,0 l/m 0,5 km/h (0 Bft) S 180 10,1 C 22,5 C 0,0 km/h (0 Bft)
08.05.2013 08:55 21,5 C 48 % 1018,6 hPa 0,0 l/m 0,5 km/h (0 Bft) S-SW 202 10,0 C 22,5 C 0,0 km/h (0 Bft)
08.05.2013 09:00 21,7 C 44 % 1018,6 hPa 0,0 l/m 0,3 km/h (0 Bft) S-SW 202 8,9 C 23,0 C 0,0 km/h (0 Bft)
08.05.2013 09:05 21,7 C 43 % 1018,6 hPa 0,0 l/m 0,3 km/h (0 Bft) N 360 8,6 C 23,0 C 1,9 km/h (1 Bft)
08.05.2013 09:10 21,5 C 40 % 1018,6 hPa 0,0 l/m 1,0 km/h (0 Bft) NW 315 7,3 C 23,0 C 2,9 km/h (1 Bft)
08.05.2013 09:15 21,3 C 43 % 1018,6 hPa 0,0 l/m 1,3 km/h (1 Bft) N-NO 22 8,2 C 22,7 C 0,0 km/h (0 Bft)
08.05.2013 09:20 21,9 C 41 % 1018,6 hPa 0,0 l/m 2,3 km/h (1 Bft) SW 225 8,0 C 22,4 C 2,4 km/h (1 Bft)
08.05.2013 09:25 21,8 C 39 % 1018,5 hPa 0,0 l/m 2,9 km/h (1 Bft) W-NW 292 7,2 C 22,1 C 5,1 km/h (1 Bft)
08.05.2013 09:30 21,4 C 39 % 1018,5 hPa 0,0 l/m 4,0 km/h (1 Bft) W-NW 292 6,9 C 21,2 C 3,4 km/h (1 Bft)
08.05.2013 09:35 21,1 C 39 % 1018,5 hPa 0,0 l/m 3,7 km/h (1 Bft) W 270 6,6 C 21,4 C 5,6 km/h (1 Bft)
08.05.2013 09:40 21,4 C 41 % 1018,5 hPa 0,0 l/m 2,4 km/h (1 Bft) W-SW 247 7,6 C 21,6 C 2,3 km/h (1 Bft)
08.05.2013 09:45 21,6 C 42 % 1018,8 hPa 0,0 l/m 2,4 km/h (1 Bft) W-NW 292 8,1 C 22,1 C 6,6 km/h (2 Bft)
08.05.2013 09:50 20,9 C 40 % 1018,8 hPa 0,0 l/m 2,7 km/h (1 Bft) W-NW 292 6,8 C 22,1 C 3,2 km/h (1 Bft)
08.05.2013 09:55 21,0 C 40 % 1018,8 hPa 0,0 l/m 3,9 km/h (1 Bft) NO 45 6,9 C 21,7 C 4,0 km/h (1 Bft)
08.05.2013 10:00 21,2 C 40 % 1018,8 hPa 0,0 l/m 4,0 km/h (1 Bft) W-SW 247 7,1 C 21,7 C 5,5 km/h (1 Bft)
08.05.2013 10:05 21,2 C 39 % 1018,9 hPa 0,0 l/m 3,7 km/h (1 Bft) O 90 6,7 C 21,7 C 5,5 km/h (1 Bft)
08.05.2013 10:10 20,8 C 39 % 1018,9 hPa 0,0 l/m 3,9 km/h (1 Bft) N-NW 337 6,3 C 22,0 C 6,3 km/h (2 Bft)
08.05.2013 10:15 21,1 C 41 % 1018,9 hPa 0,0 l/m 3,9 km/h (1 Bft) N 360 7,3 C 21,7 C 9,7 km/h (2 Bft)
08.05.2013 10:20 19,8 C 39 % 1018,9 hPa 0,0 l/m 4,7 km/h (1 Bft) N-NW 337 5,4 C 21,6 C 5,5 km/h (1 Bft)
08.05.2013 10:25 19,7 C 39 % 1019,1 hPa 0,0 l/m 4,5 km/h (1 Bft) W-NW 292 5,4 C 21,4 C 4,2 km/h (1 Bft)
08.05.2013 10:30 20,2 C 38 % 1019,1 hPa 0,0 l/m 4,5 km/h (1 Bft) W-NW 292 5,4 C 21,5 C 4,8 km/h (1 Bft)
08.05.2013 10:35 20,6 C 40 % 1019,1 hPa 0,0 l/m 4,5 km/h (1 Bft) N-NW 337 6,5 C 21,6 C 10,3 km/h (2 Bft)
08.05.2013 10:40 19,9 C 39 % 1019,1 hPa 0,0 l/m 4,5 km/h (1 Bft) W-NW 292 5,5 C 21,8 C 5,0 km/h (1 Bft)
08.05.2013 10:45 20,3 C 39 % 1019,0 hPa 0,0 l/m 5,1 km/h (1 Bft) N 360 5,9 C 21,6 C 11,3 km/h (2 Bft)
08.05.2013 10:50 20,5 C 40 % 1019,0 hPa 0,0 l/m 5,1 km/h (1 Bft) N 360 6,4 C 21,5 C 9,5 km/h (2 Bft)
08.05.2013 10:55 20,1 C 39 % 1019,0 hPa 0,0 l/m 5,3 km/h (1 Bft) N 360 5,7 C 21,4 C 12,7 km/h (3 Bft)
08.05.2013 11:00 20,2 C 38 % 1019,0 hPa 0,0 l/m 6,3 km/h (2 Bft) W-NW 292 5,4 C 21,2 C 7,9 km/h (2 Bft)
08.05.2013 11:05 19,9 C 38 % 1019,1 hPa 0,0 l/m 6,8 km/h (2 Bft) N-NW 337 5,2 C 21,0 C 12,7 km/h (3 Bft)
08.05.2013 11:10 20,2 C 37 % 1019,1 hPa 0,0 l/m 6,0 km/h (2 Bft) N-NW 337 5,0 C 21,3 C 9,0 km/h (2 Bft)
08.05.2013 11:15 20,8 C 38 % 1019,1 hPa 0,0 l/m 4,8 km/h (1 Bft) W-NW 292 6,0 C 21,4 C 3,7 km/h (1 Bft)
08.05.2013 11:20 21,0 C 36 % 1019,1 hPa 0,0 l/m 4,5 km/h (1 Bft) W 270 5,4 C 21,8 C 6,9 km/h (2 Bft)
08.05.2013 11:25 21,6 C 37 % 1018,9 hPa 0,0 l/m 4,2 km/h (1 Bft) NO 45 6,3 C 21,8 C 6,0 km/h (2 Bft)
08.05.2013 11:30 21,0 C 37 % 1018,9 hPa 0,0 l/m 5,0 km/h (1 Bft) N-NW 337 5,8 C 21,6 C 12,2 km/h (2 Bft)
08.05.2013 11:35 21,5 C 36 % 1018,9 hPa 0,0 l/m 5,1 km/h (1 Bft) N-NO 22 5,8 C 20,8 C 7,6 km/h (2 Bft)
08.05.2013 11:40 21,3 C 36 % 1018,9 hPa 0,0 l/m 4,8 km/h (1 Bft) N 360 5,6 C 20,3 C 3,1 km/h (1 Bft)
08.05.2013 11:45 20,9 C 37 % 1019,0 hPa 0,0 l/m 4,5 km/h (1 Bft) N-NW 337 5,7 C 20,5 C 8,5 km/h (2 Bft)
08.05.2013 11:50 21,9 C 37 % 1019,0 hPa 0,0 l/m 4,7 km/h (1 Bft) N-NW 337 6,5 C 20,9 C 9,0 km/h (2 Bft)
08.05.2013 11:55 21,0 C 36 % 1019,0 hPa 0,0 l/m 5,1 km/h (1 Bft) N-NW 337 5,4 C 21,4 C 7,2 km/h (2 Bft)
08.05.2013 12:00 21,3 C 37 % 1019,0 hPa 0,0 l/m 5,3 km/h (1 Bft) N 360 6,0 C 21,6 C 1,8 km/h (1 Bft)
08.05.2013 12:05 22,0 C 38 % 1018,9 hPa 0,0 l/m 4,2 km/h (1 Bft) W-NW 292 7,0 C 22,3 C 5,5 km/h (1 Bft)
08.05.2013 12:10 21,5 C 38 % 1018,9 hPa 0,0 l/m 4,2 km/h (1 Bft) N-NW 337 6,6 C 22,4 C 8,5 km/h (2 Bft)
08.05.2013 12:15 21,8 C 38 % 1018,9 hPa 0,0 l/m 5,6 km/h (1 Bft) W-NW 292 6,8 C 22,3 C 12,1 km/h (2 Bft)
08.05.2013 12:20 21,9 C 38 % 1018,9 hPa 0,0 l/m 4,5 km/h (1 Bft) W-NW 292 6,9 C 22,4 C 6,4 km/h (2 Bft)
08.05.2013 12:25 22,1 C 38 % 1018,6 hPa 0,0 l/m 3,9 km/h (1 Bft) W-NW 292 7,1 C 22,8 C 5,3 km/h (1 Bft)
08.05.2013 12:30 21,5 C 38 % 1018,6 hPa 0,0 l/m 5,0 km/h (1 Bft) W-NW 292 6,6 C 22,7 C 8,0 km/h (2 Bft)
08.05.2013 12:35 21,4 C 38 % 1018,6 hPa 0,0 l/m 6,3 km/h (2 Bft) W-NW 292 6,5 C 22,4 C 6,1 km/h (2 Bft)
08.05.2013 12:40 21,7 C 38 % 1018,6 hPa 0,0 l/m 6,9 km/h (2 Bft) W-NW 292 6,8 C 21,7 C 7,4 km/h (2 Bft)
08.05.2013 12:45 21,4 C 39 % 1018,8 hPa 0,0 l/m 6,4 km/h (2 Bft) W-NW 292 6,9 C 21,9 C 13,0 km/h (3 Bft)
08.05.2013 12:50 21,2 C 39 % 1018,8 hPa 0,0 l/m 5,6 km/h (1 Bft) N-NW 337 6,7 C 22,1 C 3,1 km/h (1 Bft)
08.05.2013 12:55 21,4 C 39 % 1018,8 hPa 0,0 l/m 5,5 km/h (1 Bft) W-NW 292 6,9 C 22,3 C 8,5 km/h (2 Bft)
08.05.2013 13:00 21,1 C 39 % 1018,8 hPa 0,0 l/m 5,6 km/h (1 Bft) W-NW 292 6,6 C 22,2 C 6,4 km/h (2 Bft)
08.05.2013 13:05 21,7 C 42 % 1018,6 hPa 0,0 l/m 5,1 km/h (1 Bft) NO 45 8,2 C 22,4 C 6,3 km/h (2 Bft)
08.05.2013 13:10 20,9 C 41 % 1018,6 hPa 0,0 l/m 5,0 km/h (1 Bft) N-NW 337 7,2 C 22,6 C 7,9 km/h (2 Bft)
08.05.2013 13:15 21,0 C 40 % 1018,6 hPa 0,0 l/m 5,6 km/h (1 Bft) W-NW 292 6,9 C 22,6 C 6,0 km/h (2 Bft)
08.05.2013 13:20 21,0 C 42 % 1018,6 hPa 0,0 l/m 5,3 km/h (1 Bft) NW 315 7,6 C 23,0 C 7,9 km/h (2 Bft)
08.05.2013 13:25 21,6 C 42 % 1018,6 hPa 0,0 l/m 5,5 km/h (1 Bft) NW 315 8,1 C 22,8 C 13,2 km/h (3 Bft)
08.05.2013 13:30 21,5 C 41 % 1018,6 hPa 0,0 l/m 5,6 km/h (1 Bft) NO 45 7,7 C 22,6 C 3,7 km/h (1 Bft)
08.05.2013 13:35 20,9 C 42 % 1018,6 hPa 0,0 l/m 5,8 km/h (2 Bft) NW 315 7,5 C 22,7 C 8,4 km/h (2 Bft)
08.05.2013 13:40 21,3 C 41 % 1018,6 hPa 0,0 l/m 5,1 km/h (1 Bft) W-SW 247 7,5 C 23,1 C 6,9 km/h (2 Bft)
08.05.2013 13:45 21,6 C 42 % 1018,7 hPa 0,0 l/m 5,1 km/h (1 Bft) NW 315 8,1 C 23,2 C 5,3 km/h (1 Bft)
08.05.2013 13:50 19,4 C 46 % 1018,7 hPa 0,0 l/m 5,6 km/h (1 Bft) N-NO 22 7,5 C 22,0 C 6,8 km/h (2 Bft)
08.05.2013 13:55 19,3 C 46 % 1018,7 hPa 0,0 l/m 4,7 km/h (1 Bft) NW 315 7,4 C 21,5 C 3,7 km/h (1 Bft)
08.05.2013 14:00 20,8 C 45 % 1018,7 hPa 0,0 l/m 3,7 km/h (1 Bft) W 270 8,4 C 21,1 C 2,1 km/h (1 Bft)
08.05.2013 14:05 20,4 C 46 % 1018,5 hPa 0,0 l/m 4,8 km/h (1 Bft) N-NW 337 8,4 C 22,1 C 6,8 km/h (2 Bft)
08.05.2013 14:10 21,6 C 44 % 1018,5 hPa 0,0 l/m 4,8 km/h (1 Bft) N-NW 337 8,8 C 22,6 C 8,0 km/h (2 Bft)
08.05.2013 14:15 21,9 C 41 % 1018,5 hPa 0,0 l/m 4,8 km/h (1 Bft) W-NW 292 8,0 C 23,5 C 3,9 km/h (1 Bft)
08.05.2013 14:20 21,3 C 41 % 1018,5 hPa 0,0 l/m 5,1 km/h (1 Bft) W-SW 247 7,5 C 24,4 C 5,1 km/h (1 Bft)
08.05.2013 14:25 21,0 C 44 % 1018,5 hPa 0,0 l/m 4,3 km/h (1 Bft) W-SW 247 8,3 C 23,6 C 5,5 km/h (1 Bft)
08.05.2013 14:30 20,6 C 45 % 1018,5 hPa 0,0 l/m 5,1 km/h (1 Bft) W-NW 292 8,2 C 22,7 C 9,8 km/h (2 Bft)
08.05.2013 14:35 20,4 C 46 % 1018,5 hPa 0,0 l/m 6,1 km/h (2 Bft) S-SW 202 8,4 C 22,1 C 13,4 km/h (3 Bft)
08.05.2013 14:40 20,2 C 47 % 1018,5 hPa 0,0 l/m 7,2 km/h (2 Bft) S-SW 202 8,5 C 21,1 C 6,1 km/h (2 Bft)
08.05.2013 14:45 20,1 C 47 % 1018,2 hPa 0,0 l/m 6,1 km/h (2 Bft) W 270 8,4 C 21,1 C 8,4 km/h (2 Bft)
08.05.2013 14:50 20,4 C 45 % 1018,2 hPa 0,0 l/m 5,3 km/h (1 Bft) W-NW 292 8,1 C 21,1 C 4,8 km/h (1 Bft)
08.05.2013 14:55 19,9 C 47 % 1018,2 hPa 0,0 l/m 6,3 km/h (2 Bft) N-NW 337 8,3 C 21,1 C 10,1 km/h (2 Bft)
08.05.2013 15:00 19,5 C 47 % 1018,2 hPa 0,0 l/m 5,5 km/h (1 Bft) W-SW 247 7,9 C 20,7 C 6,9 km/h (2 Bft)
08.05.2013 15:05 19,7 C 49 % 1018,0 hPa 0,0 l/m 5,3 km/h (1 Bft) N-NW 337 8,7 C 20,7 C 4,3 km/h (1 Bft)
08.05.2013 15:10 19,5 C 47 % 1018,0 hPa 0,0 l/m 4,8 km/h (1 Bft) N 360 7,9 C 21,1 C 6,0 km/h (2 Bft)
08.05.2013 15:15 19,5 C 48 % 1018,0 hPa 0,0 l/m 4,7 km/h (1 Bft) N-NW 337 8,2 C 21,3 C 6,9 km/h (2 Bft)
08.05.2013 15:20 20,7 C 47 % 1018,0 hPa 0,0 l/m 3,2 km/h (1 Bft) N-NO 22 9,0 C 22,1 C 3,7 km/h (1 Bft)
08.05.2013 15:25 22,0 C 45 % 1017,9 hPa 0,0 l/m 2,9 km/h (1 Bft) N 360 9,5 C 23,5 C 2,3 km/h (1 Bft)
08.05.2013 15:30 21,8 C 40 % 1017,9 hPa 0,0 l/m 4,3 km/h (1 Bft) N-NO 22 7,6 C 24,7 C 7,2 km/h (2 Bft)
08.05.2013 15:35 21,0 C 43 % 1017,9 hPa 0,0 l/m 4,3 km/h (1 Bft) NO 45 7,9 C 24,8 C 2,7 km/h (1 Bft)
08.05.2013 15:40 20,5 C 45 % 1017,9 hPa 0,0 l/m 4,2 km/h (1 Bft) W 270 8,2 C 23,6 C 3,9 km/h (1 Bft)
08.05.2013 15:45 20,2 C 46 % 1017,9 hPa 0,0 l/m 4,3 km/h (1 Bft) W-NW 292 8,2 C 22,5 C 5,3 km/h (1 Bft)
08.05.2013 15:50 20,6 C 45 % 1017,9 hPa 0,0 l/m 4,0 km/h (1 Bft) NW 315 8,2 C 22,1 C 4,0 km/h (1 Bft)
08.05.2013 15:55 22,5 C 44 % 1017,9 hPa 0,0 l/m 3,4 km/h (1 Bft) N-NO 22 9,6 C 23,7 C 5,0 km/h (1 Bft)
08.05.2013 16:00 22,7 C 42 % 1017,9 hPa 0,0 l/m 2,9 km/h (1 Bft) O-SO 112 9,1 C 25,5 C 0,0 km/h (0 Bft)
08.05.2013 16:05 20,9 C 42 % 1017,9 hPa 0,0 l/m 3,7 km/h (1 Bft) O 90 7,5 C 25,3 C 3,5 km/h (1 Bft)
08.05.2013 16:10 21,0 C 43 % 1017,9 hPa 0,0 l/m 3,7 km/h (1 Bft) NW 315 7,9 C 23,6 C 6,6 km/h (2 Bft)
08.05.2013 16:15 20,8 C 43 % 1017,9 hPa 0,0 l/m 4,7 km/h (1 Bft) N-NW 337 7,8 C 23,6 C 8,5 km/h (2 Bft)
08.05.2013 16:20 20,8 C 45 % 1017,9 hPa 0,0 l/m 5,8 km/h (2 Bft) W-SW 247 8,4 C 22,9 C 5,5 km/h (1 Bft)
08.05.2013 16:25 21,3 C 45 % 1017,8 hPa 0,0 l/m 4,8 km/h (1 Bft) W-NW 292 8,9 C 23,6 C 2,6 km/h (1 Bft)
08.05.2013 16:30 21,7 C 43 % 1017,8 hPa 0,0 l/m 2,7 km/h (1 Bft) S-SW 202 8,6 C 25,4 C 6,0 km/h (2 Bft)
08.05.2013 16:35 21,5 C 42 % 1017,8 hPa 0,0 l/m 2,6 km/h (1 Bft) S-SW 202 8,0 C 26,1 C 2,4 km/h (1 Bft)
08.05.2013 16:40 21,4 C 45 % 1017,8 hPa 0,0 l/m 2,6 km/h (1 Bft) W-SW 247 9,0 C 26,6 C 2,9 km/h (1 Bft)
08.05.2013 16:45 20,8 C 45 % 1017,9 hPa 0,0 l/m 2,6 km/h (1 Bft) SO 135 8,4 C 26,0 C 4,2 km/h (1 Bft)
08.05.2013 16:50 20,6 C 46 % 1017,9 hPa 0,0 l/m 2,9 km/h (1 Bft) S 180 8,6 C 24,9 C 5,8 km/h (2 Bft)
08.05.2013 16:55 20,7 C 46 % 1017,9 hPa 0,0 l/m 3,7 km/h (1 Bft) SO 135 8,7 C 24,4 C 3,5 km/h (1 Bft)
08.05.2013 17:00 20,5 C 47 % 1017,9 hPa 0,0 l/m 3,7 km/h (1 Bft) SO 135 8,8 C 23,8 C 4,8 km/h (1 Bft)
08.05.2013 17:05 20,7 C 46 % 1017,7 hPa 0,0 l/m 3,7 km/h (1 Bft) S-SO 157 8,7 C 24,4 C 7,7 km/h (2 Bft)
08.05.2013 17:10 19,9 C 48 % 1017,7 hPa 0,0 l/m 4,3 km/h (1 Bft) SO 135 8,6 C 23,7 C 4,7 km/h (1 Bft)
08.05.2013 17:15 19,5 C 48 % 1017,7 hPa 0,0 l/m 3,7 km/h (1 Bft) O-SO 112 8,2 C 22,9 C 2,1 km/h (1 Bft)
08.05.2013 17:20 19,8 C 50 % 1017,7 hPa 0,0 l/m 2,4 km/h (1 Bft) S-SO 157 9,1 C 22,6 C 1,9 km/h (1 Bft)
08.05.2013 17:25 20,2 C 48 % 1017,4 hPa 0,0 l/m 1,4 km/h (1 Bft) SO 135 8,8 C 24,0 C 0,0 km/h (0 Bft)
08.05.2013 17:30 21,0 C 48 % 1017,4 hPa 0,0 l/m 0,6 km/h (0 Bft) W 270 9,6 C 27,0 C 3,4 km/h (1 Bft)
08.05.2013 17:35 20,2 C 46 % 1017,4 hPa 0,0 l/m 1,1 km/h (1 Bft) S-SO 157 8,2 C 26,9 C 3,7 km/h (1 Bft)
08.05.2013 17:40 20,9 C 47 % 1017,4 hPa 0,0 l/m 3,2 km/h (1 Bft) W 270 9,2 C 26,4 C 6,4 km/h (2 Bft)
08.05.2013 17:45 20,8 C 47 % 1017,2 hPa 0,0 l/m 3,9 km/h (1 Bft) W-SW 247 9,1 C 26,6 C 5,0 km/h (1 Bft)
08.05.2013 17:50 20,8 C 46 % 1017,2 hPa 0,0 l/m 3,4 km/h (1 Bft) SW 225 8,8 C 26,4 C 2,1 km/h (1 Bft)
08.05.2013 17:55 20,8 C 45 % 1017,2 hPa 0,0 l/m 2,6 km/h (1 Bft) W-NW 292 8,4 C 27,2 C 6,3 km/h (2 Bft)
08.05.2013 18:00 20,7 C 46 % 1017,2 hPa 0,0 l/m 2,6 km/h (1 Bft) N-NW 337 8,7 C 27,4 C 3,9 km/h (1 Bft)
08.05.2013 18:05 20,4 C 46 % 1017,1 hPa 0,0 l/m 3,5 km/h (1 Bft) N-NW 337 8,4 C 27,3 C 5,6 km/h (1 Bft)
08.05.2013 18:10 20,5 C 46 % 1017,1 hPa 0,0 l/m 3,9 km/h (1 Bft) N-NW 337 8,5 C 27,0 C 9,0 km/h (2 Bft)
08.05.2013 18:15 20,3 C 46 % 1017,1 hPa 0,0 l/m 4,0 km/h (1 Bft) W-NW 292 8,3 C 26,9 C 4,8 km/h (1 Bft)
08.05.2013 18:20 20,3 C 46 % 1017,1 hPa 0,0 l/m 4,3 km/h (1 Bft) O-NO 67 8,3 C 26,8 C 5,5 km/h (1 Bft)
08.05.2013 18:25 20,5 C 47 % 1016,9 hPa 0,0 l/m 4,2 km/h (1 Bft) NW 315 8,8 C 26,7 C 4,7 km/h (1 Bft)
08.05.2013 18:30 20,4 C 45 % 1016,9 hPa 0,0 l/m 4,3 km/h (1 Bft) N-NW 337 8,1 C 26,8 C 6,1 km/h (2 Bft)
08.05.2013 18:35 20,7 C 46 % 1016,9 hPa 0,0 l/m 3,9 km/h (1 Bft) NW 315 8,7 C 27,1 C 6,1 km/h (2 Bft)
08.05.2013 18:40 20,5 C 45 % 1016,9 hPa 0,0 l/m 4,7 km/h (1 Bft) N 360 8,2 C 27,0 C 8,2 km/h (2 Bft)
08.05.2013 18:45 20,5 C 45 % 1016,9 hPa 0,0 l/m 4,7 km/h (1 Bft) N 360 8,2 C 26,7 C 4,2 km/h (1 Bft)
08.05.2013 18:50 20,9 C 48 % 1016,9 hPa 0,0 l/m 3,1 km/h (1 Bft) NO 45 9,5 C 27,4 C 3,7 km/h (1 Bft)
08.05.2013 18:55 20,7 C 45 % 1016,9 hPa 0,0 l/m 2,4 km/h (1 Bft) N-NW 337 8,3 C 27,9 C 2,9 km/h (1 Bft)
08.05.2013 19:00 20,6 C 46 % 1016,9 hPa 0,0 l/m 2,6 km/h (1 Bft) O-SO 112 8,6 C 27,4 C 2,1 km/h (1 Bft)
08.05.2013 19:05 20,5 C 49 % 1016,9 hPa 0,0 l/m 2,3 km/h (1 Bft) N-NO 22 9,4 C 27,8 C 3,2 km/h (1 Bft)
08.05.2013 19:10 19,8 C 54 % 1016,9 hPa 0,0 l/m 3,1 km/h (1 Bft) W-SW 247 10,2 C 27,0 C 4,2 km/h (1 Bft)
08.05.2013 19:15 19,2 C 53 % 1016,9 hPa 0,0 l/m 3,5 km/h (1 Bft) N-NO 22 9,4 C 25,9 C 6,1 km/h (2 Bft)
08.05.2013 19:20 18,6 C 57 % 1016,9 hPa 0,0 l/m 1,9 km/h (1 Bft) S-SW 202 9,9 C 24,4 C 0,0 km/h (0 Bft)
08.05.2013 19:25 18,6 C 58 % 1017,1 hPa 0,0 l/m 1,1 km/h (1 Bft) O 90 10,2 C 24,4 C 2,6 km/h (1 Bft)
08.05.2013 19:30 18,6 C 59 % 1017,1 hPa 0,0 l/m 1,3 km/h (1 Bft) N 360 10,4 C 24,0 C 0,0 km/h (0 Bft)
08.05.2013 19:35 18,6 C 59 % 1017,1 hPa 0,0 l/m 2,1 km/h (1 Bft) N 360 10,4 C 23,9 C 3,1 km/h (1 Bft)
08.05.2013 19:40 18,6 C 57 % 1017,1 hPa 0,0 l/m 2,6 km/h (1 Bft) NW 315 9,9 C 23,3 C 2,4 km/h (1 Bft)
08.05.2013 19:45 18,4 C 56 % 1017,1 hPa 0,0 l/m 3,4 km/h (1 Bft) NW 315 9,5 C 22,9 C 5,0 km/h (1 Bft)
08.05.2013 19:50 18,1 C 58 % 1017,1 hPa 0,0 l/m 3,1 km/h (1 Bft) W-NW 292 9,7 C 22,2 C 2,3 km/h (1 Bft)
08.05.2013 19:55 17,8 C 57 % 1017,1 hPa 0,0 l/m 2,6 km/h (1 Bft) NW 315 9,2 C 21,7 C 0,0 km/h (0 Bft)
08.05.2013 20:00 17,4 C 58 % 1017,1 hPa 0,0 l/m 1,1 km/h (1 Bft) NO 45 9,1 C 21,6 C 3,2 km/h (1 Bft)
08.05.2013 20:05 17,0 C 59 % 1016,9 hPa 0,0 l/m 1,4 km/h (1 Bft) NO 45 8,9 C 21,3 C 4,8 km/h (1 Bft)
08.05.2013 20:10 16,4 C 61 % 1016,9 hPa 0,0 l/m 3,2 km/h (1 Bft) O 90 8,9 C 19,3 C 4,2 km/h (1 Bft)
08.05.2013 20:15 15,9 C 64 % 1016,9 hPa 0,0 l/m 3,5 km/h (1 Bft) O 90 9,1 C 18,1 C 4,5 km/h (1 Bft)
08.05.2013 20:20 15,5 C 66 % 1016,9 hPa 0,0 l/m 3,7 km/h (1 Bft) NO 45 9,2 C 17,2 C 3,2 km/h (1 Bft)
08.05.2013 20:25 15,2 C 68 % 1016,9 hPa 0,0 l/m 3,4 km/h (1 Bft) NO 45 9,3 C 16,6 C 3,5 km/h (1 Bft)
08.05.2013 20:30 14,6 C 69 % 1016,9 hPa 0,0 l/m 3,2 km/h (1 Bft) O 90 9,0 C 15,6 C 3,4 km/h (1 Bft)
08.05.2013 20:35 14,4 C 70 % 1016,9 hPa 0,0 l/m 3,2 km/h (1 Bft) O 90 9,0 C 15,0 C 3,1 km/h (1 Bft)
08.05.2013 20:40 14,1 C 70 % 1016,9 hPa 0,0 l/m 2,7 km/h (1 Bft) O 90 8,7 C 14,3 C 2,9 km/h (1 Bft)
08.05.2013 20:45 14,0 C 71 % 1016,8 hPa 0,0 l/m 2,7 km/h (1 Bft) O 90 8,8 C 14,0 C 4,0 km/h (1 Bft)
08.05.2013 20:50 13,7 C 72 % 1016,8 hPa 0,0 l/m 2,9 km/h (1 Bft) O-SO 112 8,7 C 13,7 C 1,9 km/h (1 Bft)
08.05.2013 20:55 13,6 C 73 % 1016,8 hPa 0,0 l/m 2,9 km/h (1 Bft) O 90 8,9 C 13,4 C 3,5 km/h (1 Bft)
08.05.2013 21:00 13,5 C 73 % 1016,8 hPa 0,0 l/m 2,9 km/h (1 Bft) O-NO 67 8,8 C 13,1 C 2,3 km/h (1 Bft)
08.05.2013 21:05 13,4 C 74 % 1016,7 hPa 0,0 l/m 3,1 km/h (1 Bft) NO 45 8,9 C 13,1 C 3,4 km/h (1 Bft)
08.05.2013 21:10 13,2 C 74 % 1016,7 hPa 0,0 l/m 3,2 km/h (1 Bft) O 90 8,7 C 12,9 C 4,8 km/h (1 Bft)
08.05.2013 21:15 13,1 C 75 % 1016,7 hPa 0,0 l/m 3,2 km/h (1 Bft) SW 225 8,8 C 12,8 C 3,4 km/h (1 Bft)
08.05.2013 21:20 12,9 C 76 % 1016,7 hPa 0,0 l/m 2,9 km/h (1 Bft) O-SO 112 8,8 C 12,6 C 2,7 km/h (1 Bft)
08.05.2013 21:25 12,7 C 77 % 1016,8 hPa 0,0 l/m 2,4 km/h (1 Bft) O-SO 112 8,8 C 12,4 C 3,2 km/h (1 Bft)
08.05.2013 21:30 12,3 C 77 % 1016,8 hPa 0,0 l/m 1,6 km/h (1 Bft) O-SO 112 8,4 C 12,2 C 0,0 km/h (0 Bft)
08.05.2013 21:35 12,1 C 77 % 1016,8 hPa 0,0 l/m 1,0 km/h (0 Bft) NO 45 8,2 C 11,9 C 0,0 km/h (0 Bft)
08.05.2013 21:40 12,1 C 78 % 1016,8 hPa 0,0 l/m 0,6 km/h (0 Bft) O 90 8,4 C 11,7 C 0,0 km/h (0 Bft)
08.05.2013 21:45 12,2 C 78 % 1017,0 hPa 0,0 l/m 0,6 km/h (0 Bft) O-SO 112 8,5 C 11,7 C 0,0 km/h (0 Bft)
08.05.2013 21:50 11,9 C 78 % 1017,0 hPa 0,0 l/m 0,6 km/h (0 Bft) O-SO 112 8,2 C 11,7 C 3,2 km/h (1 Bft)
08.05.2013 21:55 11,8 C 78 % 1017,0 hPa 0,0 l/m 1,0 km/h (0 Bft) O 90 8,1 C 11,7 C 0,0 km/h (0 Bft)
08.05.2013 22:00 11,8 C 78 % 1017,0 hPa 0,0 l/m 0,5 km/h (0 Bft) O-NO 67 8,1 C 11,6 C 0,0 km/h (0 Bft)
08.05.2013 22:05 11,6 C 78 % 1017,1 hPa 0,0 l/m 0,2 km/h (0 Bft) NO 45 7,9 C 11,5 C 0,0 km/h (0 Bft)
08.05.2013 22:10 11,4 C 79 % 1017,1 hPa 0,0 l/m 0,0 km/h (0 Bft) O-NO 67 7,9 C 11,2 C 0,0 km/h (0 Bft)
08.05.2013 22:15 11,3 C 79 % 1017,1 hPa 0,0 l/m 0,0 km/h (0 Bft) O-NO 67 7,8 C 11,0 C 0,0 km/h (0 Bft)
08.05.2013 22:20 11,0 C 79 % 1017,1 hPa 0,0 l/m 0,0 km/h (0 Bft) O-NO 67 7,5 C 10,8 C 0,0 km/h (0 Bft)
08.05.2013 22:25 11,0 C 79 % 1017,1 hPa 0,0 l/m 0,0 km/h (0 Bft) O-NO 67 7,5 C 10,7 C 0,0 km/h (0 Bft)
08.05.2013 22:30 11,2 C 82 % 1017,1 hPa 0,0 l/m 0,0 km/h (0 Bft) NO 45 8,2 C 10,6 C 1,8 km/h (1 Bft)
08.05.2013 22:35 11,1 C 82 % 1017,1 hPa 0,0 l/m 0,2 km/h (0 Bft) NO 45 8,1 C 10,7 C 0,0 km/h (0 Bft)
08.05.2013 22:40 10,9 C 82 % 1017,1 hPa 0,0 l/m 0,2 km/h (0 Bft) W 270 7,9 C 10,7 C 0,0 km/h (0 Bft)
08.05.2013 22:45 10,9 C 82 % 1017,1 hPa 0,0 l/m 0,0 km/h (0 Bft) N-NO 22 7,9 C 10,7 C 1,8 km/h (1 Bft)
08.05.2013 22:50 10,9 C 82 % 1017,1 hPa 0,0 l/m 0,0 km/h (0 Bft) SW 225 7,9 C 10,7 C 0,0 km/h (0 Bft)
08.05.2013 22:55 10,8 C 83 % 1017,1 hPa 0,0 l/m 0,0 km/h (0 Bft) S 180 8,0 C 10,8 C 0,0 km/h (0 Bft)
08.05.2013 23:00 11,1 C 83 % 1017,1 hPa 0,0 l/m 0,3 km/h (0 Bft) O-SO 112 8,3 C 10,9 C 1,9 km/h (1 Bft)
08.05.2013 23:05 11,2 C 83 % 1017,2 hPa 0,0 l/m 0,5 km/h (0 Bft) S 180 8,4 C 11,0 C 1,6 km/h (1 Bft)
08.05.2013 23:10 11,2 C 83 % 1017,2 hPa 0,0 l/m 0,3 km/h (0 Bft) O 90 8,4 C 11,1 C 0,0 km/h (0 Bft)
08.05.2013 23:15 11,0 C 83 % 1017,2 hPa 0,0 l/m 0,0 km/h (0 Bft) N-NO 22 8,2 C 11,0 C 0,0 km/h (0 Bft)
08.05.2013 23:20 10,9 C 83 % 1017,2 hPa 0,0 l/m 0,0 km/h (0 Bft) W 270 8,1 C 10,9 C 0,0 km/h (0 Bft)
08.05.2013 23:25 11,1 C 84 % 1017,2 hPa 0,0 l/m 0,0 km/h (0 Bft) N 360 8,5 C 10,8 C 0,0 km/h (0 Bft)
08.05.2013 23:30 11,1 C 83 % 1017,2 hPa 0,0 l/m 0,0 km/h (0 Bft) O-NO 67 8,3 C 10,8 C 0,0 km/h (0 Bft)
08.05.2013 23:35 11,0 C 83 % 1017,2 hPa 0,0 l/m 0,0 km/h (0 Bft) W-NW 292 8,2 C 10,8 C 0,0 km/h (0 Bft)
08.05.2013 23:40 10,9 C 83 % 1017,2 hPa 0,0 l/m 0,0 km/h (0 Bft) O 90 8,1 C 10,7 C 0,0 km/h (0 Bft)
08.05.2013 23:45 10,7 C 83 % 1017,4 hPa 0,0 l/m 0,0 km/h (0 Bft) O 90 7,9 C 10,7 C 0,0 km/h (0 Bft)
08.05.2013 23:48 10,9 C 85 % 1017,4 hPa 0,0 l/m 0,0 km/h (0 Bft) NO 45 8,5 C 10,5 C 0,0 km/h (0 Bft)
08.05.2013 23:50 10,9 C 85 % 1017,4 hPa 0,0 l/m 0,0 km/h (0 Bft) NO 45 8,5 C 10,5 C 0,0 km/h (0 Bft)
08.05.2013 23:55 11,1 C 85 % 1017,4 hPa 0,0 l/m 0,2 km/h (0 Bft) N-NW 337 8,7 C 10,5 C 0,0 km/h (0 Bft)
_ Min-Zeit 06:05 11:55 03:40 - 23:50 - - 06:05 06:15 23:55
Minimum _ 6,2 C 36 % 1016,6 hPa - 0,0 km/h (0 Bft) - - 4,4 C 5,9 C 0,0 km/h (0 Bft)
_ Max-Zeit 16:00 06:40 00:20 06:50 14:40 - - 19:35 18:55 14:35
Maximum _ 22,7 C 89 % 1020,1 hPa 0,7 l/m 7,2 km/h
S-SW (2 Bft)
- - 10,4 C 27,9 C 13,4 km/h
S-SW (3 Bft)
Durchschnitt _ 15,4 C 63 % 1017,8 hPa #0,7 l/m 2,3 km/h (1 Bft) W-NW - 7,5 C 16,8 C 3,1 km/h (1 Bft)